Weather History for KDYT - November, 2013

Change the Weather History Date:

Friday, November 29, 2013

  Actual Average Record
Temperature  
Mean Temperature 17 °F -  
Max Temperature 28 °F 31 °F 55 °F (1951)
Min Temperature 6 °F 15 °F -16 °F (1976)
Degree Days  
Heating Degree Days 48    
Moisture  
Dew Point 13 °F    
Average Humidity 78    
Maximum Humidity 92    
Minimum Humidity 64    
Precipitation  
Precipitation 0.00 in - - ()
Sea Level Pressure  
Sea Level Pressure 30.39 in    
Wind  
Wind Speed 3 mph (SSE)    
Max Wind Speed 10 mph    
Max Gust Speed -    
Visibility 10 miles    
Events      
Averages and records for this station are not official NWS values.
T = Trace of Precipitation, MM = Missing Value Source: NWS Daily Summary

Daily Weather History Graph

Daily Weather History Graph

Search for Another Location

Airport or City:

Trip Planner

Search our weather history database for the weather conditions in past years. The results will help you decide how hot, cold, wet, or windy it might be!

Date:

Astronomy

Nov. 29, 2013 Rise Set
Actual Time 7:30 AM CST 4:22 PM CST
Civil Twilight 6:55 AM CST 4:57 PM CST
Nautical Twilight 6:17 AM CST 5:34 PM CST
Astronomical Twilight 5:41 AM CST 6:11 PM CST
Moon 3:23 AM CST (11/29) 2:18 PM CST (11/29)
Length of Visible Light 10h 01m
Length of Day
8h 52m
Waning Crescent, 14% of the Moon is Illuminated
Nov 29
Waning Crescent
Dec 2
New
Dec 9
First Quarter
Dec 17
Full
Dec 25
Last Quarter

Hourly Weather History & Observations

Time (CST) Temp. Windchill Dew Point Humidity Pressure Visibility Wind Dir Wind Speed Gust Speed Precip Events Conditions
12:13 AM 14.0 °F 3.9 °F 10.4 °F 86% 30.50 in 10.0 mi SSW 6.9 mph - N/A   Clear
12:34 AM 12.2 °F 1.7 °F 10.4 °F 92% 30.50 in 10.0 mi SW 6.9 mph - N/A   Clear
12:53 AM 12.2 °F 2.9 °F 10.4 °F 92% 30.50 in 10.0 mi SW 5.8 mph - N/A   Clear
1:13 AM 12.2 °F 4.3 °F 10.4 °F 92% 30.51 in 10.0 mi WSW 4.6 mph - N/A   Clear
1:33 AM 12.2 °F 4.3 °F 8.6 °F 85% 30.51 in 10.0 mi SW 4.6 mph - N/A   Clear
1:53 AM 12.2 °F - 8.6 °F 85% 30.52 in 10.0 mi Calm Calm - N/A   Clear
2:14 AM 10.4 °F - 6.8 °F 85% 30.51 in 10.0 mi Calm Calm - N/A   Clear
2:33 AM 10.4 °F - 6.8 °F 85% 30.51 in 10.0 mi Calm Calm - N/A   Clear
2:53 AM 10.4 °F - 6.8 °F 85% 30.52 in 10.0 mi Calm Calm - N/A   Clear
3:14 AM 10.4 °F - 6.8 °F 85% 30.51 in 10.0 mi Calm Calm - N/A   Clear
3:33 AM 8.6 °F - 6.8 °F 92% 30.51 in 10.0 mi Calm Calm - N/A   Clear
3:53 AM 8.6 °F - 6.8 °F 92% 30.51 in 10.0 mi Calm Calm - N/A   Clear
4:13 AM 8.6 °F - 5.0 °F 85% 30.52 in 10.0 mi Calm Calm - N/A   Clear
4:33 AM 8.6 °F - 5.0 °F 85% 30.51 in 10.0 mi Calm Calm - N/A   Clear
4:54 AM 8.6 °F - 5.0 °F 85% 30.52 in 10.0 mi Calm Calm - N/A   Clear
5:13 AM 8.6 °F - 5.0 °F 85% 30.52 in 10.0 mi Calm Calm - N/A   Clear
5:33 AM 8.6 °F - 5.0 °F 85% 30.52 in 10.0 mi Calm Calm - N/A   Clear
5:54 AM 8.6 °F - 5.0 °F 85% 30.52 in 10.0 mi Calm Calm - N/A   Clear
6:13 AM 6.8 °F - 3.2 °F 85% 30.52 in 10.0 mi Calm Calm - N/A   Clear
6:33 AM 6.8 °F - 3.2 °F 85% 30.52 in 10.0 mi Calm Calm - N/A   Clear
6:54 AM 6.8 °F - 3.2 °F 85% 30.52 in 10.0 mi Calm Calm - N/A   Clear
7:13 AM 8.6 °F - 3.2 °F 79% 30.52 in 10.0 mi Calm Calm - N/A   Scattered Clouds
7:33 AM 8.6 °F - 3.2 °F 79% 30.53 in 10.0 mi Calm Calm - N/A   Mostly Cloudy
7:53 AM 8.6 °F - 5.0 °F 85% 30.53 in 10.0 mi Calm Calm - N/A   Mostly Cloudy
8:13 AM 8.6 °F - 5.0 °F 85% 30.53 in 10.0 mi Calm Calm - N/A   Mostly Cloudy
8:34 AM 8.6 °F - 6.8 °F 92% 30.52 in 10.0 mi Calm Calm - N/A   Mostly Cloudy
8:53 AM 10.4 °F - 8.6 °F 92% 30.52 in 10.0 mi Calm Calm - N/A   Mostly Cloudy
9:14 AM 12.2 °F - 8.6 °F 85% 30.52 in 10.0 mi Calm Calm - N/A   Scattered Clouds
9:33 AM 12.2 °F - 10.4 °F 92% 30.53 in 10.0 mi Calm Calm - N/A   Scattered Clouds
9:53 AM 14.0 °F - 10.4 °F 86% 30.52 in 10.0 mi Calm Calm - N/A   Mostly Cloudy
10:14 AM 15.8 °F - 10.4 °F 79% 30.52 in 10.0 mi Calm Calm - N/A   Mostly Cloudy
10:33 AM 15.8 °F - 12.2 °F 86% 30.51 in 10.0 mi Calm Calm - N/A   Scattered Clouds
10:53 AM 17.6 °F - 12.2 °F 79% 30.50 in 10.0 mi Calm Calm - N/A   Scattered Clouds
11:14 AM 19.4 °F - 14.0 °F 80% 30.49 in 10.0 mi Calm Calm - N/A   Clear
11:33 AM 19.4 °F - 15.8 °F 86% 30.47 in 10.0 mi Calm Calm - N/A   Scattered Clouds
11:53 AM 21.2 °F - 15.8 °F 80% 30.46 in 10.0 mi Calm Calm - N/A   Mostly Cloudy
12:14 PM 21.2 °F - 15.8 °F 80% 30.44 in 10.0 mi Calm Calm - N/A   Mostly Cloudy
12:33 PM 24.8 °F - 15.8 °F 69% 30.43 in 10.0 mi Calm Calm - N/A   Mostly Cloudy
12:53 PM 24.8 °F 16.1 °F 15.8 °F 69% 30.41 in 10.0 mi South 8.1 mph - N/A   Scattered Clouds
1:13 PM 24.8 °F 16.9 °F 15.8 °F 69% 30.40 in 10.0 mi South 6.9 mph - N/A   Clear
1:33 PM 24.8 °F 16.1 °F 15.8 °F 69% 30.38 in 10.0 mi South 8.1 mph - N/A   Scattered Clouds
1:53 PM 26.6 °F 19.1 °F 15.8 °F 64% 30.37 in 10.0 mi South 6.9 mph - N/A   Scattered Clouds
2:13 PM 26.6 °F 16.8 °F 15.8 °F 64% 30.37 in 10.0 mi South 10.4 mph - N/A   Scattered Clouds
2:34 PM 26.6 °F 18.2 °F 17.6 °F 69% 30.36 in 10.0 mi South 8.1 mph - N/A   Scattered Clouds
2:53 PM 26.6 °F 20.0 °F 17.6 °F 69% 30.35 in 10.0 mi South 5.8 mph - N/A   Scattered Clouds
3:13 PM 26.6 °F 22.6 °F 15.8 °F 64% 30.34 in 10.0 mi SE 3.5 mph - N/A   Scattered Clouds
3:33 PM 26.6 °F 18.2 °F 17.6 °F 69% 30.32 in 10.0 mi South 8.1 mph - N/A   Clear
3:53 PM 26.6 °F 17.5 °F 17.6 °F 69% 30.31 in 10.0 mi SSE 9.2 mph - N/A   Clear
4:14 PM 26.6 °F 17.5 °F 17.6 °F 69% 30.31 in 10.0 mi SSE 9.2 mph - N/A   Clear
4:33 PM 26.6 °F 17.5 °F 17.6 °F 69% 30.30 in 10.0 mi SSE 9.2 mph - N/A   Clear
4:53 PM 24.8 °F 16.9 °F 17.6 °F 74% 30.29 in 10.0 mi SE 6.9 mph - N/A   Clear
5:14 PM 26.6 °F 20.0 °F 17.6 °F 69% 30.28 in 10.0 mi SE 5.8 mph - N/A   Clear
5:33 PM 26.6 °F 20.0 °F 17.6 °F 69% 30.28 in 10.0 mi ESE 5.8 mph - N/A   Clear
5:53 PM 26.6 °F 18.2 °F 17.6 °F 69% 30.26 in 10.0 mi SE 8.1 mph - N/A   Scattered Clouds
6:13 PM 26.6 °F 20.0 °F 17.6 °F 69% 30.25 in 10.0 mi SE 5.8 mph - N/A   Clear
6:33 PM 26.6 °F 19.1 °F 17.6 °F 69% 30.24 in 10.0 mi SE 6.9 mph - N/A   Scattered Clouds
6:54 PM 26.6 °F 20.0 °F 17.6 °F 69% 30.24 in 10.0 mi ESE 5.8 mph - N/A   Mostly Cloudy
7:13 PM 26.6 °F 20.0 °F 17.6 °F 69% 30.23 in 10.0 mi ESE 5.8 mph - N/A   Overcast
7:34 PM 26.6 °F 21.2 °F 17.6 °F 69% 30.22 in 10.0 mi ESE 4.6 mph - N/A   Overcast
7:53 PM 26.6 °F 22.6 °F 17.6 °F 69% 30.22 in 10.0 mi SE 3.5 mph - N/A   Overcast
8:13 PM 26.6 °F 22.6 °F 17.6 °F 69% 30.22 in 10.0 mi SSE 3.5 mph - N/A   Overcast
8:34 PM 26.6 °F - 17.6 °F 69% 30.21 in 10.0 mi Calm Calm - N/A   Overcast
8:53 PM 26.6 °F - 17.6 °F 69% 30.20 in 10.0 mi Calm Calm - N/A   Overcast
9:14 PM 26.6 °F - 19.4 °F 74% 30.20 in 10.0 mi Calm Calm - N/A   Overcast
9:33 PM 26.6 °F 22.6 °F 19.4 °F 74% 30.20 in 10.0 mi SSE 3.5 mph - N/A   Overcast
9:53 PM 26.6 °F - 17.6 °F 69% 30.20 in 10.0 mi Calm Calm - N/A   Overcast
10:14 PM 26.6 °F - 17.6 °F 69% 30.19 in 10.0 mi Calm Calm - N/A   Overcast
10:33 PM 28.4 °F - 19.4 °F 69% 30.18 in 10.0 mi Calm Calm - N/A   Overcast
10:53 PM 28.4 °F - 19.4 °F 69% 30.17 in 10.0 mi Calm Calm - N/A   Overcast
11:13 PM 28.4 °F - 19.4 °F 69% 30.17 in 10.0 mi Calm Calm - N/A   Overcast
11:34 PM 28.4 °F 23.3 °F 21.2 °F 74% 30.16 in 10.0 mi SSE 4.6 mph - N/A   Overcast
11:53 PM 28.4 °F 23.3 °F 21.2 °F 74% 30.15 in 10.0 mi South 4.6 mph - N/A   Overcast